Minot AFB, ND

3:17 AM CDT on May 26, 2018 (GMT -0500)
Minot Air Force Base

Weather History for KMIB - April, 2014

Change the Weather History Date:

Tuesday, April 29, 2014

  Actual Average Record
Temperature  
Mean Temperature 42 °F -  
Max Temperature 51 °F 60 °F 80 °F (1998)
Min Temperature 32 °F 35 °F 28 °F (2013)
Degree Days  
Heating Degree Days 24    
Moisture  
Dew Point 33 °F    
Average Humidity 89    
Maximum Humidity 100    
Minimum Humidity 42    
Precipitation  
Precipitation 0.04 in - - ()
Sea Level Pressure  
Sea Level Pressure 30.14 in    
Wind  
Wind Speed 10 mph (NNE)    
Max Wind Speed 25 mph    
Max Gust Speed 31 mph    
Visibility 10 miles    
Events Rain , Snow    
Averages and records for this station are not official NWS values.
T = Trace of Precipitation, MM = Missing Value Source: NWS Daily Summary

Daily Weather History Graph

Daily Weather History Graph

Search for Another Location

Airport or City:

Astronomy

Apr. 29, 2014 Rise Set
Actual Time 6:29 AM CDT 8:57 PM CDT
Civil Twilight 5:54 AM CDT 9:31 PM CDT
Nautical Twilight 5:10 AM CDT 10:16 PM CDT
Astronomical Twilight 4:20 AM CDT 11:06 PM CDT
Moon 6:49 AM CDT (4/29) 9:40 PM CDT (4/29)
Length of Visible Light 15h 37m
Length of Day
14h 27m
New Moon, 0% of the Moon is Illuminated
Apr 29
New Moon
May 6
First Quarter
May 14
Full
May 21
Last Quarter
May 28
New

Hourly Weather History & Observations

Time (CDT) Temp. Windchill Dew Point Humidity Pressure Visibility Wind Dir Wind Speed Gust Speed Precip Events Conditions
12:08 AM 32.0 °F 24.8 °F 32.0 °F 100% 29.98 in 10.0 mi NE 8.1 mph - N/A Snow Light Snow
12:13 AM 32.0 °F 24.8 °F 32.0 °F 100% 29.98 in 10.0 mi NNE 8.1 mph - N/A Rain Light Freezing Rain
12:29 AM 32.0 °F 23.6 °F 32.0 °F 100% 29.98 in 10.0 mi NNE 10.4 mph - N/A Rain Light Rain
12:58 AM 33.8 °F 25.8 °F 33.8 °F 100% 30.06 in 10.0 mi NE 10.4 mph - 0.01 in Rain Light Rain
1:28 AM 32.0 °F 24.8 °F 32.0 °F 100% 30.01 in 10.0 mi NE 8.1 mph - N/A Rain Light Freezing Rain
1:43 AM 32.0 °F 25.6 °F 32.0 °F 100% 30.01 in 10.0 mi NE 6.9 mph - N/A Rain Light Freezing Rain
1:50 AM 32.0 °F 24.8 °F 32.0 °F 100% 30.01 in 10.0 mi NE 8.1 mph - N/A Rain Light Rain
1:58 AM 33.4 °F 25.9 °F 33.4 °F 100% 30.08 in 10.0 mi NE 9.2 mph - 0.00 in Rain Light Rain
2:46 AM 32.0 °F 25.6 °F 32.0 °F 100% 30.02 in 10.0 mi NE 6.9 mph - N/A   Overcast
2:51 AM 32.0 °F 25.6 °F 32.0 °F 100% 30.02 in 10.0 mi NNE 6.9 mph - N/A   Overcast
2:58 AM 33.6 °F 27.5 °F 33.6 °F 100% 30.10 in 10.0 mi NNE 6.9 mph - 0.01 in   Light Drizzle
3:23 AM 32.0 °F 25.6 °F 32.0 °F 100% 30.03 in 10.0 mi NNE 6.9 mph - N/A Rain Light Rain
3:58 AM 33.3 °F 27.1 °F 33.3 °F 100% 30.13 in 10.0 mi NNE 6.9 mph - 0.01 in   Light Drizzle
4:23 AM 32.0 °F 24.8 °F 32.0 °F 100% 30.06 in 10.0 mi NE 8.1 mph - N/A Rain Light Rain
4:38 AM 32.0 °F 24.8 °F 32.0 °F 100% 30.07 in 10.0 mi NNE 8.1 mph - N/A   Light Drizzle
4:53 AM 32.0 °F 24.2 °F 32.0 °F 100% 30.07 in 10.0 mi North 9.2 mph - N/A Rain Light Rain
4:58 AM 33.3 °F 25.7 °F 33.3 °F 100% 30.15 in 10.0 mi North 9.2 mph - 0.00 in Rain Light Rain
5:23 AM 32.0 °F 23.0 °F 32.0 °F 100% 30.08 in 10.0 mi NNE 11.5 mph - N/A Rain Light Rain
5:58 AM 33.4 °F 25.4 °F 33.4 °F 100% 30.17 in 10.0 mi NNE 10.4 mph - 0.00 in Rain Light Rain
6:13 AM 32.0 °F 23.6 °F 32.0 °F 100% 30.09 in 10.0 mi NNE 10.4 mph - N/A Rain Light Rain
6:43 AM 32.0 °F 24.2 °F 32.0 °F 100% 30.10 in 10.0 mi NNE 9.2 mph - N/A Rain Light Rain
6:53 AM 32.0 °F 24.2 °F 32.0 °F 100% 30.11 in 10.0 mi NNE 9.2 mph - N/A Rain Light Rain
6:58 AM 33.4 °F 25.4 °F 33.4 °F 100% 30.19 in 10.0 mi NE 10.4 mph - 0.01 in   Overcast
7:03 AM 32.0 °F 23.0 °F 32.0 °F 100% 30.12 in 10.0 mi NNE 11.5 mph - N/A   Overcast
7:13 AM 32.0 °F 24.2 °F 32.0 °F 100% 30.12 in 10.0 mi NNE 9.2 mph - N/A   Overcast
7:18 AM 33.8 °F 25.8 °F 33.8 °F 100% 30.12 in 10.0 mi NNE 10.4 mph - N/A   Overcast
7:38 AM 33.8 °F 27.0 °F 33.8 °F 100% 30.13 in 10.0 mi North 8.1 mph - N/A   Overcast
7:48 AM 33.8 °F 25.8 °F 33.8 °F 100% 30.13 in 10.0 mi North 10.4 mph - N/A   Overcast
7:58 AM 34.0 °F 26.0 °F 34.0 °F 100% 30.21 in 10.0 mi North 10.4 mph - 0.00 in   Overcast
8:58 AM 34.7 °F 26.4 °F 34.3 °F 99% 30.24 in 10.0 mi North 11.5 mph - N/A   Overcast
9:58 AM 36.5 °F 28.2 °F 36.1 °F 99% 30.24 in 10.0 mi North 12.7 mph - N/A   Overcast
10:58 AM 38.7 °F 30.1 °F 38.3 °F 99% 30.25 in 10.0 mi North 15.0 mph - N/A   Mostly Cloudy
11:58 AM 41.4 °F 32.7 °F 37.2 °F 85% 30.25 in 10.0 mi North 18.4 mph - N/A   Clear
12:58 PM 43.9 °F 35.7 °F 37.0 °F 77% 30.25 in 10.0 mi North 19.6 mph - N/A   Clear
1:58 PM 46.0 °F 38.0 °F 37.8 °F 73% 30.23 in 10.0 mi North 21.9 mph 27.6 mph N/A   Clear
2:58 PM 47.8 °F - 37.9 °F 69% 30.23 in 10.0 mi North 19.6 mph 28.8 mph N/A   Partly Cloudy
3:58 PM 50.5 °F - 38.3 °F 63% 30.21 in 10.0 mi North 19.6 mph 25.3 mph N/A   Scattered Clouds
4:58 PM 51.4 °F - 32.7 °F 49% 30.21 in 10.0 mi North 25.3 mph 29.9 mph N/A   Clear
5:58 PM 51.1 °F - 28.6 °F 42% 30.21 in 10.0 mi North 23.0 mph 31.1 mph N/A   Clear
6:58 PM 50.4 °F - 27.7 °F 42% 30.22 in 10.0 mi NNE 21.9 mph - N/A   Clear
7:58 PM 48.6 °F - 29.3 °F 47% 30.23 in 10.0 mi NNE 15.0 mph - N/A   Clear
8:58 PM 45.7 °F 40.2 °F 30.7 °F 56% 30.25 in 10.0 mi North 11.5 mph - N/A   Clear
9:58 PM 41.7 °F 35.6 °F 31.6 °F 67% 30.25 in 10.0 mi NNW 10.4 mph - N/A   Clear
10:58 PM 39.0 °F 32.8 °F 31.3 °F 74% 30.25 in 10.0 mi North 9.2 mph - N/A   Clear
11:58 PM 36.9 °F 29.1 °F 29.7 °F 75% 30.25 in 10.0 mi North 11.5 mph - N/A   Clear